User: anonymous   Login
Location: Unspecified
(0.0000°N, 0.0000°E)
Time: 01:44:37
(UTC+00:00)
Language:

USA 136 - Orbit

View from above orbital plane
View from above orbital plane
View from above satellite
View from above satellite

Ground track
Ground track

The orbit data is extracted from the following two-line orbital elements,

1 25034U 97068A   17092.71283153 0.00000000  00000-0  00000-0 0    06
2 25034  63.3760 227.9986 6319937 285.5775  16.5480  2.00595000    06
Epoch (UTC): 02 April 2017 17:06:28
Eccentricity: 0.6319937
inclination: 63.3760°
perigee height: 3395 km
apogee height: 36963 km
right ascension of ascending node: 227.9986°
argument of perigee: 285.5775°
revolutions per day: 2.00595000
mean anomaly at epoch: 16.5480°
orbit number at epoch: 0

The dashed part of the orbit path shows where the satellite is in the earth's shadow,  

DLR